Simultaneous Nadir Overpasses (SNOs) Predictions

Prediction of SNOs over PacNW region [( 10.00, 139.50) to ( 22.70, 165.60)] between AQUA and NPP Satellites:

Table of predicted SNOs over PacNW region for the next 30.0 days since TLE Epoch: 2/22/2019
Index Date (AQUA) Time (AQUA) AQUA Lat,Lon Date (NPP) Time (NPP) NPP Lat,Lon Distance(km) Time Diff (sec)
1 02/23/2019 15:10:06 22.61, 159.86 02/23/2019 15:11:05 23.18, 157.19 281.15 59
2 02/26/2019 03:31:58 22.68, 147.52 02/26/2019 03:28:28 26.71, 144.69 531.51 210
3 03/03/2019 15:59:35 22.61, 147.50 03/03/2019 16:01:44 23.26, 144.54 312.20 129
4 03/11/2019 15:10:10 22.63, 159.87 03/11/2019 15:10:55 23.21, 157.23 278.26 45
5 03/19/2019 15:59:39 22.62, 147.51 03/19/2019 16:01:35 23.25, 144.57 309.62 116




NCC Satellite Simultaneous Nadir Overpasses (SNOs) Prediction Service
